Location: S�o Paulo
(23.5330°S, 46.6170°W)
Time: 01:08:43
(UTC-03:00)

ISS - Visible Passes

Search period start: 27 May 2017 00:00
Search period end: 06 June 2017 00:00
Orbit: 402 x 408 km, 51.6° (Epoch: 27 May)

Date Brightness Start Highest point End Pass type
(mag) Time Alt. Az. Time Alt. Az. Time Alt. Az.
27 May -0.7 05:43:19 10° N 05:45:38 18° NE 05:47:58 10° E visible
29 May -3.4 05:34:38 10° NNW 05:37:51 65° NE 05:41:07 10° SE visible
30 May -1.6 04:45:37 24° NE 04:45:54 25° NE 04:48:39 10° ESE visible
31 May -3.0 05:30:27 32° SW 05:30:27 32° SW 05:33:11 10° SSE visible
